Home   Weather   Eilat   Past weeks

Flag for Israel Past Weather in Eilat, Israel — Yesterday and Last 2 Weeks

Now
48 °F

Sunny.


Feels Like: 44 °F
Forecast: 61 / 78 °F
Wind: 9 mph from Northeast

Location: Eilat

Current Time: Jan 24, 2017 at 7:10:57 am

Latest Report: Jan 24, 2017 at 6:50 am


Visibility: 10 mi

Pressure: 30.09 "Hg

Humidity: 58%

Dew Point: 34 °F

Location of EilatLocation

Past Weather in Eilat — Graph

°F

Eilat Temperature Yesterday

Maximum temperature yesterday: 70 °F (at 2:50 pm)
Minimum temperature yesterday: 52 °F (at 6:50 am)
Average temperature yesterday: 61 °F

High & Low Weather Summary for the Past Weeks

 TemperatureHumidityPressure
High75 °F (Jan 18, 2:50 pm)77% (Jan 16, 5:30 am)30.24 "Hg (Jan 16, 5:30 am)
Low43 °F (Jan 11, 5:50 am)22% (Jan 10, 3:50 pm)29.83 "Hg (Jan 14, 2:50 pm)
Average61 °F44%30.07 "Hg
* Reported Jan 9 5:27 am — Jan 24 5:50 am, Eilat, Weather by CustomWeather, © 2017

Note: Actual official high and low records may vary slightly from our data, if they occured in-between our weather recording intervals... More about our weather records

Advertising

Eilat Weather History for the Previous 24 Hours

Scroll right to see more
 ConditionsComfort  
Time TempWeatherWind HumidityBarometerVisibility
5:50 am
Tue, Jan 24
46 °FClear.9 mph62%30.07 "Hg10 mi
5:30 am46 °FClear.6 mph62%30.07 "Hg10 mi
9:50 pm
Mon, Jan 23
54 °FClear.6 mph47%30.12 "Hg10 mi
8:50 pm59 °FClear.12 mph36%30.12 "Hg10 mi
7:50 pm63 °FClear.14 mph34%30.09 "Hg10 mi
6:50 pm63 °FClear.16 mph34%30.09 "Hg10 mi
5:50 pm64 °FClear.15 mph32%30.07 "Hg10 mi
4:50 pm66 °FSunny.15 mph30%30.07 "Hg10 mi
3:50 pm68 °FSunny.17 mph28%30.07 "Hg10 mi
2:50 pm70 °FSunny.17 mph27%30.04 "Hg10 mi
1:50 pm68 °FSunny.16 mph30%30.07 "Hg10 mi
12:50 pm66 °FSunny.17 mph32%30.09 "Hg10 mi
11:50 am64 °FSunny.17 mph34%30.12 "Hg10 mi
10:50 am63 °FSunny.18 mph39%30.15 "Hg10 mi
9:50 am61 °FSunny.16 mph42%30.18 "Hg10 mi
8:50 am57 °FSunny.15 mph48%30.18 "Hg10 mi
7:50 am54 °FSunny.13 mph58%30.15 "Hg10 mi
Weather by CustomWeather, © 2017

See weather overviewHow to use our weather pages